Climatologie pour Saint-Brevin les Pins
Jour • Résumé pour mai 5, 2017 Système :  Métrique    Anglais   Mixte
« - 1 jour
+ 1 jour »
Jour Semaine Mois Année Personnalisé
  Maximum : Minimum : Moyenne :
Température sous abri : 22.3 °C 8.9 °C 14.5 °C
Point de rosée : 12.8 °C 8.0 °C 9.5 °C
Humidité : 96 % 42 % 75 %
Vitesse du vent : 32.2 km/h 0.0 km/h 11.7 km/h
Rafale : 48.3 km/h - -
Direction :- - East
Pression : 1016.1 hPa 1005.3 hPa -
Précipitations : 5.8 mm    
Historical Graphs
 
 
Tableau de données pour mai 5, 2017
Heure Tempé Pt rosée Pression Vent Vitesse Rafale Humidité Taux pluie (/hr) Soleil
00:00 11.1 °C 8.7 °C 1016.1 hPa East 11.3 km/h 16.1 km/h 85 % 0.0 mm 0 W/m2
00:10 11.1 °C 8.6 °C 1016.1 hPa ENE 8.0 km/h 14.5 km/h 85 % 0.0 mm 0 W/m2
00:15 11.0 °C 8.6 °C 1016.1 hPa ENE 4.8 km/h 14.5 km/h 85 % 0.0 mm 0 W/m2
00:20 10.8 °C 8.6 °C 1016.1 hPa ENE 8.0 km/h 14.5 km/h 86 % 0.0 mm 0 W/m2
00:25 10.7 °C 8.5 °C 1015.8 hPa ESE 8.0 km/h 14.5 km/h 86 % 0.0 mm 0 W/m2
00:30 10.7 °C 8.4 °C 1015.8 hPa ENE 12.9 km/h 16.1 km/h 86 % 0.0 mm 0 W/m2
00:35 10.6 °C 8.4 °C 1015.8 hPa ENE 8.0 km/h 16.1 km/h 86 % 0.0 mm 0 W/m2
00:40 10.6 °C 8.3 °C 1015.8 hPa ENE 3.2 km/h 16.1 km/h 86 % 0.0 mm 0 W/m2
00:45 10.6 °C 8.3 °C 1015.8 hPa ENE 3.2 km/h 14.5 km/h 86 % 0.0 mm 0 W/m2
00:50 10.6 °C 8.3 °C 1015.8 hPa East 8.0 km/h 14.5 km/h 86 % 0.0 mm 0 W/m2
00:55 10.5 °C 8.3 °C 1015.8 hPa ENE 11.3 km/h 16.1 km/h 86 % 0.0 mm 0 W/m2
01:00 10.5 °C 8.3 °C 1015.8 hPa East 1.6 km/h 16.1 km/h 86 % 0.0 mm 0 W/m2
01:05 10.4 °C 8.2 °C 1015.8 hPa East 3.2 km/h 16.1 km/h 86 % 0.0 mm 0 W/m2
01:10 10.4 °C 8.2 °C 1015.8 hPa East 4.8 km/h 16.1 km/h 86 % 0.0 mm 0 W/m2
01:20 10.3 °C 8.3 °C 1015.8 hPa East 9.7 km/h 14.5 km/h 87 % 0.0 mm 0 W/m2
01:25 10.3 °C 8.2 °C 1015.8 hPa ENE 4.8 km/h 14.5 km/h 87 % 0.0 mm 0 W/m2
01:30 10.3 °C 8.2 °C 1015.8 hPa East 9.7 km/h 16.1 km/h 87 % 0.0 mm 0 W/m2
01:35 10.2 °C 8.2 °C 1015.8 hPa ENE 11.3 km/h 16.1 km/h 87 % 0.0 mm 0 W/m2
01:40 10.1 °C 8.2 °C 1015.5 hPa ENE 8.0 km/h 16.1 km/h 88 % 0.0 mm 0 W/m2
01:45 10.1 °C 8.2 °C 1015.5 hPa ENE 12.9 km/h 16.1 km/h 88 % 0.0 mm 0 W/m2
01:50 10.1 °C 8.2 °C 1015.5 hPa East 11.3 km/h 16.1 km/h 88 % 0.0 mm 0 W/m2
01:55 10.1 °C 8.2 °C 1015.5 hPa East 9.7 km/h 17.7 km/h 88 % 0.0 mm 0 W/m2
02:00 10.1 °C 8.2 °C 1015.5 hPa NE 6.4 km/h 17.7 km/h 88 % 0.0 mm 0 W/m2
02:05 10.1 °C 8.2 °C 1015.5 hPa ENE 6.4 km/h 20.9 km/h 88 % 0.0 mm 0 W/m2
02:10 10.2 °C 8.3 °C 1015.5 hPa ENE 11.3 km/h 20.9 km/h 88 % 0.0 mm 0 W/m2
02:15 10.1 °C 8.2 °C 1015.5 hPa East 12.9 km/h 19.3 km/h 88 % 0.0 mm 0 W/m2
02:20 10.1 °C 8.2 °C 1015.5 hPa East 6.4 km/h 17.7 km/h 88 % 0.0 mm 0 W/m2
02:25 10.1 °C 8.2 °C 1015.5 hPa East 11.3 km/h 17.7 km/h 88 % 0.0 mm 0 W/m2
02:30 10.1 °C 8.2 °C 1015.5 hPa East 12.9 km/h 17.7 km/h 88 % 0.0 mm 0 W/m2
02:35 10.1 °C 8.3 °C 1015.5 hPa NE 3.2 km/h 16.1 km/h 89 % 0.0 mm 0 W/m2
02:40 10.1 °C 8.3 °C 1015.5 hPa ENE 8.0 km/h 24.1 km/h 89 % 0.0 mm 0 W/m2
02:45 10.1 °C 8.4 °C 1015.5 hPa ENE 8.0 km/h 24.1 km/h 89 % 0.0 mm 0 W/m2
02:50 10.1 °C 8.4 °C 1015.1 hPa East 14.5 km/h 22.5 km/h 89 % 0.0 mm 0 W/m2
02:55 10.1 °C 8.4 °C 1015.1 hPa ESE 8.0 km/h 22.5 km/h 89 % 0.0 mm 0 W/m2
03:00 10.1 °C 8.4 °C 1015.1 hPa ESE 8.0 km/h 16.1 km/h 89 % 0.0 mm 0 W/m2
03:05 10.1 °C 8.3 °C 1015.1 hPa East 6.4 km/h 16.1 km/h 89 % 0.0 mm 0 W/m2
03:10 10.1 °C 8.3 °C 1015.1 hPa ESE 4.8 km/h 16.1 km/h 89 % 0.0 mm 0 W/m2
03:15 10.1 °C 8.5 °C 1015.1 hPa East 4.8 km/h 16.1 km/h 90 % 0.0 mm 0 W/m2
03:20 10.0 °C 8.3 °C 1015.1 hPa ESE 8.0 km/h 16.1 km/h 89 % 0.0 mm 0 W/m2
03:25 9.9 °C 8.3 °C 1015.1 hPa ENE 8.0 km/h 16.1 km/h 90 % 0.0 mm 0 W/m2
03:35 9.9 °C 8.4 °C 1015.1 hPa ENE 8.0 km/h 22.5 km/h 90 % 0.0 mm 0 W/m2
03:40 9.9 °C 8.3 °C 1014.8 hPa East 8.0 km/h 17.7 km/h 90 % 0.0 mm 0 W/m2
03:45 9.8 °C 8.4 °C 1014.8 hPa East 4.8 km/h 16.1 km/h 91 % 0.0 mm 0 W/m2
03:50 9.8 °C 8.4 °C 1014.8 hPa ENE 4.8 km/h 16.1 km/h 91 % 0.0 mm 0 W/m2
03:55 9.9 °C 8.5 °C 1014.8 hPa East 8.0 km/h 17.7 km/h 91 % 0.0 mm 0 W/m2
04:00 9.8 °C 8.4 °C 1014.8 hPa ESE 6.4 km/h 17.7 km/h 91 % 0.0 mm 0 W/m2
04:05 9.8 °C 8.4 °C 1014.8 hPa East 4.8 km/h 17.7 km/h 91 % 0.0 mm 0 W/m2
04:10 9.8 °C 8.6 °C 1014.8 hPa ENE 6.4 km/h 17.7 km/h 92 % 0.0 mm 0 W/m2
04:15 9.8 °C 8.5 °C 1014.8 hPa East 8.0 km/h 22.5 km/h 92 % 0.0 mm 0 W/m2
04:20 9.8 °C 8.5 °C 1014.4 hPa East 14.5 km/h 22.5 km/h 92 % 0.0 mm 0 W/m2
04:25 9.7 °C 8.5 °C 1014.4 hPa ENE 6.4 km/h 19.3 km/h 92 % 0.0 mm 0 W/m2
04:30 9.7 °C 8.4 °C 1014.4 hPa ESE 9.7 km/h 16.1 km/h 92 % 0.0 mm 0 W/m2
04:35 9.6 °C 8.4 °C 1014.4 hPa ENE 4.8 km/h 16.1 km/h 92 % 0.0 mm 0 W/m2
04:40 9.6 °C 8.3 °C 1014.4 hPa ENE 4.8 km/h 17.7 km/h 92 % 0.0 mm 0 W/m2
04:45 9.6 °C 8.3 °C 1014.4 hPa East 8.0 km/h 17.7 km/h 92 % 0.0 mm 0 W/m2
04:50 9.4 °C 8.2 °C 1014.4 hPa NE 6.4 km/h 16.1 km/h 92 % 0.0 mm 0 W/m2
04:55 9.4 °C 8.2 °C 1014.4 hPa East 4.8 km/h 16.1 km/h 92 % 0.0 mm 0 W/m2
05:05 9.3 °C 8.3 °C 1014.4 hPa ENE 3.2 km/h 16.1 km/h 93 % 0.0 mm 0 W/m2
05:10 9.3 °C 8.3 °C 1014.4 hPa East 11.3 km/h 16.1 km/h 93 % 0.0 mm 0 W/m2
05:15 9.3 °C 8.3 °C 1014.4 hPa ENE 4.8 km/h 16.1 km/h 93 % 0.0 mm 0 W/m2
05:20 9.3 °C 8.2 °C 1014.1 hPa ENE 1.6 km/h 16.1 km/h 93 % 0.0 mm 0 W/m2
05:25 9.3 °C 8.2 °C 1014.1 hPa SE 11.3 km/h 17.7 km/h 93 % 0.0 mm 0 W/m2
05:30 9.3 °C 8.2 °C 1014.1 hPa East 14.5 km/h 22.5 km/h 93 % 0.0 mm 0 W/m2
05:35 9.3 °C 8.2 °C 1014.1 hPa ENE 3.2 km/h 22.5 km/h 93 % 0.0 mm 0 W/m2
05:40 9.3 °C 8.2 °C 1014.1 hPa East 8.0 km/h 16.1 km/h 93 % 0.0 mm 0 W/m2
05:45 9.3 °C 8.2 °C 1014.1 hPa ENE 8.0 km/h 22.5 km/h 93 % 0.0 mm 0 W/m2
05:50 9.3 °C 8.2 °C 1013.8 hPa East 12.9 km/h 22.5 km/h 93 % 0.0 mm 0 W/m2
05:55 9.3 °C 8.2 °C 1014.1 hPa East 4.8 km/h 20.9 km/h 93 % 0.0 mm 0 W/m2
06:00 9.2 °C 8.1 °C 1013.8 hPa East 9.7 km/h 22.5 km/h 93 % 0.0 mm 0 W/m2
06:05 9.2 °C 8.1 °C 1013.8 hPa ENE 6.4 km/h 22.5 km/h 93 % 0.0 mm 0 W/m2
06:10 9.1 °C 8.0 °C 1013.8 hPa East 12.9 km/h 20.9 km/h 93 % 0.0 mm 0 W/m2
06:15 9.1 °C 8.2 °C 1013.8 hPa ENE 12.9 km/h 20.9 km/h 94 % 0.0 mm 0 W/m2
06:20 9.1 °C 8.2 °C 1013.8 hPa East 14.5 km/h 24.1 km/h 94 % 0.0 mm 0 W/m2
06:25 9.1 °C 8.1 °C 1013.8 hPa East 16.1 km/h 24.1 km/h 94 % 0.0 mm 0 W/m2
06:30 9.1 °C 8.1 °C 1013.8 hPa NE 14.5 km/h 22.5 km/h 94 % 0.0 mm 0 W/m2
06:35 9.0 °C 8.1 °C 1013.8 hPa ESE 8.0 km/h 20.9 km/h 94 % 0.0 mm 0 W/m2
06:40 8.9 °C 8.0 °C 1013.8 hPa ENE 8.0 km/h 20.9 km/h 94 % 0.0 mm 5 W/m2
06:45 8.9 °C 8.0 °C 1013.4 hPa ENE 12.9 km/h 19.3 km/h 94 % 0.0 mm 7 W/m2
06:50 8.9 °C 8.0 °C 1013.4 hPa ENE 11.3 km/h 19.3 km/h 94 % 0.0 mm 11 W/m2
06:55 8.9 °C 8.0 °C 1013.4 hPa East 12.9 km/h 24.1 km/h 94 % 0.0 mm 14 W/m2
07:00 8.9 °C 8.0 °C 1013.4 hPa East 17.7 km/h 24.1 km/h 94 % 0.0 mm 21 W/m2
07:05 9.0 °C 8.1 °C 1013.4 hPa East 12.9 km/h 22.5 km/h 94 % 0.0 mm 32 W/m2
07:10 9.1 °C 8.1 °C 1013.4 hPa East 14.5 km/h 27.4 km/h 94 % 0.0 mm 39 W/m2
07:15 9.2 °C 8.3 °C 1013.4 hPa East 6.4 km/h 27.4 km/h 94 % 0.0 mm 47 W/m2
07:20 9.2 °C 8.3 °C 1013.4 hPa ENE 16.1 km/h 25.7 km/h 94 % 0.0 mm 56 W/m2
07:25 9.3 °C 8.3 °C 1013.4 hPa SE 6.4 km/h 24.1 km/h 93 % 0.0 mm 58 W/m2
07:30 9.4 °C 8.3 °C 1013.4 hPa East 9.7 km/h 25.7 km/h 93 % 0.0 mm 49 W/m2
07:35 9.4 °C 8.4 °C 1013.1 hPa ENE 16.1 km/h 25.7 km/h 93 % 0.0 mm 58 W/m2
07:40 9.5 °C 8.4 °C 1013.1 hPa East 8.0 km/h 25.7 km/h 93 % 0.0 mm 63 W/m2
07:45 9.6 °C 8.5 °C 1013.1 hPa East 12.9 km/h 25.7 km/h 93 % 0.0 mm 58 W/m2
07:50 9.6 °C 8.5 °C 1013.1 hPa East 14.5 km/h 29.0 km/h 93 % 0.0 mm 63 W/m2
07:55 9.6 °C 8.5 °C 1012.8 hPa ENE 20.9 km/h 33.8 km/h 93 % 0.0 mm 74 W/m2
08:00 9.7 °C 8.4 °C 1012.8 hPa ENE 17.7 km/h 33.8 km/h 92 % 0.0 mm 97 W/m2
08:05 9.8 °C 8.6 °C 1012.8 hPa East 20.9 km/h 27.4 km/h 92 % 0.0 mm 123 W/m2
08:10 10.1 °C 8.8 °C 1012.8 hPa ENE 8.0 km/h 29.0 km/h 92 % 0.0 mm 137 W/m2
08:15 10.2 °C 8.8 °C 1012.8 hPa ENE 4.8 km/h 29.0 km/h 91 % 0.0 mm 139 W/m2
08:20 10.4 °C 9.0 °C 1012.8 hPa East 14.5 km/h 29.0 km/h 91 % 0.0 mm 149 W/m2
08:25 10.6 °C 9.0 °C 1012.8 hPa East 9.7 km/h 27.4 km/h 90 % 0.0 mm 141 W/m2
08:30 10.7 °C 8.9 °C 1012.8 hPa East 8.0 km/h 27.4 km/h 89 % 0.0 mm 156 W/m2
08:35 10.8 °C 9.0 °C 1012.8 hPa NE 8.0 km/h 27.4 km/h 89 % 0.0 mm 165 W/m2
08:40 10.8 °C 8.9 °C 1012.8 hPa ENE 8.0 km/h 29.0 km/h 88 % 0.0 mm 156 W/m2
08:45 10.9 °C 9.0 °C 1012.4 hPa East 14.5 km/h 32.2 km/h 88 % 0.0 mm 197 W/m2
08:55 11.2 °C 9.1 °C 1012.4 hPa East 9.7 km/h 37.0 km/h 87 % 0.0 mm 204 W/m2
09:00 11.3 °C 9.2 °C 1012.4 hPa East 14.5 km/h 33.8 km/h 87 % 0.0 mm 202 W/m2
09:05 11.3 °C 9.1 °C 1012.4 hPa ENE 8.0 km/h 35.4 km/h 86 % 0.0 mm 199 W/m2
09:10 11.4 °C 9.2 °C 1012.8 hPa ESE 20.9 km/h 35.4 km/h 86 % 0.0 mm 241 W/m2
09:15 11.6 °C 9.3 °C 1012.8 hPa East 9.7 km/h 29.0 km/h 86 % 0.0 mm 272 W/m2
09:20 11.8 °C 9.4 °C 1012.8 hPa ENE 11.3 km/h 29.0 km/h 85 % 0.0 mm 302 W/m2
09:25 12.0 °C 9.4 °C 1012.8 hPa East 14.5 km/h 29.0 km/h 84 % 0.0 mm 262 W/m2
09:30 12.0 °C 9.4 °C 1012.4 hPa ESE 9.7 km/h 25.7 km/h 84 % 0.0 mm 258 W/m2
09:40 12.1 °C 9.3 °C 1012.4 hPa ENE 11.3 km/h 32.2 km/h 83 % 0.0 mm 236 W/m2
09:45 12.3 °C 9.7 °C 1012.8 hPa East 8.0 km/h 30.6 km/h 84 % 0.0 mm 345 W/m2
09:50 12.6 °C 9.7 °C 1012.8 hPa East 4.8 km/h 29.0 km/h 83 % 0.0 mm 369 W/m2
09:55 12.8 °C 9.8 °C 1012.8 hPa East 16.1 km/h 33.8 km/h 82 % 0.0 mm 403 W/m2
10:00 13.2 °C 10.2 °C 1012.4 hPa SE 11.3 km/h 33.8 km/h 82 % 0.0 mm 420 W/m2
10:05 13.2 °C 9.8 °C 1012.4 hPa ESE 11.3 km/h 32.2 km/h 80 % 0.0 mm 380 W/m2
10:10 13.3 °C 10.1 °C 1012.4 hPa East 25.7 km/h 29.0 km/h 81 % 0.0 mm 387 W/m2
10:15 13.3 °C 9.9 °C 1012.4 hPa East 22.5 km/h 29.0 km/h 80 % 0.0 mm 399 W/m2
10:20 13.4 °C 10.0 °C 1012.4 hPa East 17.7 km/h 33.8 km/h 80 % 0.0 mm 390 W/m2
10:25 13.6 °C 10.2 °C 1012.1 hPa ESE 19.3 km/h 33.8 km/h 80 % 0.0 mm 424 W/m2
10:30 13.9 °C 10.5 °C 1012.1 hPa ENE 14.5 km/h 33.8 km/h 80 % 0.0 mm 508 W/m2
10:35 14.0 °C 10.2 °C 1012.1 hPa SE 12.9 km/h 33.8 km/h 78 % 0.0 mm 515 W/m2
10:40 14.1 °C 10.1 °C 1012.1 hPa NE 16.1 km/h 35.4 km/h 77 % 0.0 mm 408 W/m2
10:45 14.3 °C 10.3 °C 1012.1 hPa ESE 17.7 km/h 37.0 km/h 77 % 0.0 mm 540 W/m2
10:50 14.7 °C 10.5 °C 1011.7 hPa East 22.5 km/h 37.0 km/h 76 % 0.0 mm 582 W/m2
10:55 14.7 °C 10.3 °C 1011.7 hPa ENE 24.1 km/h 29.0 km/h 75 % 0.0 mm 439 W/m2
11:00 14.6 °C 10.2 °C 1011.7 hPa NE 19.3 km/h 35.4 km/h 75 % 0.0 mm 446 W/m2
11:05 14.7 °C 10.1 °C 1011.4 hPa SE 24.1 km/h 35.4 km/h 74 % 0.0 mm 462 W/m2
11:10 14.7 °C 10.1 °C 1011.4 hPa ESE 11.3 km/h 37.0 km/h 74 % 0.0 mm 399 W/m2
11:15 14.8 °C 10.0 °C 1011.4 hPa ESE 19.3 km/h 37.0 km/h 73 % 0.0 mm 367 W/m2
11:20 14.9 °C 10.1 °C 1011.4 hPa ESE 25.7 km/h 38.6 km/h 73 % 0.0 mm 350 W/m2
11:25 14.9 °C 9.9 °C 1011.1 hPa ESE 24.1 km/h 40.2 km/h 72 % 0.0 mm 339 W/m2
11:30 14.9 °C 9.9 °C 1011.1 hPa ENE 8.0 km/h 40.2 km/h 72 % 0.0 mm 304 W/m2
11:40 15.1 °C 10.0 °C 1010.7 hPa East 12.9 km/h 30.6 km/h 72 % 0.0 mm 369 W/m2
11:45 15.2 °C 10.2 °C 1010.7 hPa East 14.5 km/h 32.2 km/h 72 % 0.0 mm 480 W/m2
11:50 15.5 °C 9.8 °C 1010.7 hPa ESE 17.7 km/h 38.6 km/h 69 % 0.0 mm 591 W/m2
11:55 15.6 °C 9.9 °C 1010.7 hPa East 11.3 km/h 38.6 km/h 69 % 0.0 mm 487 W/m2
12:00 15.7 °C 10.0 °C 1010.4 hPa East 12.9 km/h 30.6 km/h 69 % 0.0 mm 434 W/m2
12:05 15.7 °C 10.0 °C 1010.4 hPa East 11.3 km/h 30.6 km/h 69 % 0.0 mm 330 W/m2
12:10 15.7 °C 10.0 °C 1010.4 hPa ESE 22.5 km/h 38.6 km/h 69 % 0.0 mm 313 W/m2
12:15 15.5 °C 9.8 °C 1010.0 hPa ESE 16.1 km/h 38.6 km/h 69 % 0.0 mm 325 W/m2
12:20 15.6 °C 9.7 °C 1010.0 hPa SE 20.9 km/h 38.6 km/h 68 % 0.0 mm 388 W/m2
12:25 15.9 °C 9.8 °C 1009.7 hPa East 14.5 km/h 43.4 km/h 67 % 0.0 mm 585 W/m2
12:30 16.4 °C 10.0 °C 1010.0 hPa East 27.4 km/h 43.4 km/h 66 % 0.0 mm 694 W/m2
12:35 16.8 °C 10.4 °C 1010.0 hPa SE 6.4 km/h 33.8 km/h 66 % 0.0 mm 680 W/m2
12:40 17.1 °C 10.5 °C 1010.0 hPa ENE 11.3 km/h 40.2 km/h 65 % 0.0 mm 717 W/m2
12:50 17.5 °C 10.6 °C 1010.0 hPa SE 14.5 km/h 43.4 km/h 64 % 0.0 mm 564 W/m2
12:55 17.8 °C 10.4 °C 1010.0 hPa East 17.7 km/h 43.4 km/h 62 % 0.0 mm 844 W/m2
13:00 18.0 °C 10.6 °C 1010.0 hPa East 22.5 km/h 33.8 km/h 62 % 0.0 mm 821 W/m2
13:10 18.4 °C 10.7 °C 1010.0 hPa SE 14.5 km/h 37.0 km/h 61 % 0.0 mm 907 W/m2
13:15 18.4 °C 10.5 °C 1010.0 hPa SE 8.0 km/h 37.0 km/h 60 % 0.0 mm 837 W/m2
13:20 18.8 °C 11.6 °C 1010.0 hPa East 3.2 km/h 37.0 km/h 63 % 0.0 mm 882 W/m2
13:25 18.8 °C 10.4 °C 1010.0 hPa ESE 12.9 km/h 38.6 km/h 58 % 0.0 mm 891 W/m2
13:30 18.9 °C 10.4 °C 1009.7 hPa East 20.9 km/h 38.6 km/h 58 % 0.0 mm 904 W/m2
13:35 19.3 °C 11.1 °C 1009.7 hPa East 11.3 km/h 32.2 km/h 59 % 0.0 mm 777 W/m2
13:40 19.4 °C 10.7 °C 1009.7 hPa ESE 20.9 km/h 41.8 km/h 57 % 0.0 mm 833 W/m2
13:45 19.4 °C 10.2 °C 1009.4 hPa ESE 12.9 km/h 41.8 km/h 55 % 0.0 mm 863 W/m2
13:50 19.6 °C 10.0 °C 1009.4 hPa SE 19.3 km/h 37.0 km/h 54 % 0.0 mm 905 W/m2
13:55 19.6 °C 9.8 °C 1009.4 hPa East 32.2 km/h 37.0 km/h 53 % 0.0 mm 947 W/m2
14:00 19.4 °C 9.8 °C 1009.0 hPa East 14.5 km/h 41.8 km/h 54 % 0.0 mm 847 W/m2
14:05 19.1 °C 9.6 °C 1009.4 hPa East 14.5 km/h 41.8 km/h 54 % 0.0 mm 431 W/m2
14:10 19.3 °C 10.1 °C 1009.4 hPa ESE 14.5 km/h 40.2 km/h 55 % 0.0 mm 1032 W/m2
14:15 19.7 °C 10.4 °C 1009.4 hPa ESE 12.9 km/h 40.2 km/h 55 % 0.0 mm 612 W/m2
14:20 20.3 °C 11.0 °C 1009.4 hPa East 4.8 km/h 30.6 km/h 55 % 0.0 mm 1056 W/m2
14:25 20.4 °C 10.2 °C 1009.0 hPa East 19.3 km/h 30.6 km/h 52 % 0.0 mm 962 W/m2
14:30 19.8 °C 10.0 °C 1008.7 hPa ENE 19.3 km/h 35.4 km/h 53 % 0.0 mm 383 W/m2
14:40 20.8 °C 10.0 °C 1008.4 hPa ESE 25.7 km/h 38.6 km/h 50 % 0.0 mm 963 W/m2
14:45 20.6 °C 9.5 °C 1008.4 hPa ENE 22.5 km/h 48.3 km/h 49 % 0.0 mm 575 W/m2
14:50 20.2 °C 8.9 °C 1008.0 hPa ENE 24.1 km/h 48.3 km/h 48 % 0.0 mm 891 W/m2
14:55 20.2 °C 8.9 °C 1008.0 hPa SE 17.7 km/h 41.8 km/h 48 % 0.0 mm 432 W/m2
15:00 20.9 °C 9.5 °C 1008.0 hPa ESE 14.5 km/h 38.6 km/h 48 % 0.0 mm 1016 W/m2
15:05 21.1 °C 9.9 °C 1008.0 hPa East 17.7 km/h 37.0 km/h 49 % 0.0 mm 905 W/m2
15:10 20.7 °C 9.3 °C 1007.7 hPa ESE 30.6 km/h 38.6 km/h 48 % 0.0 mm 297 W/m2
15:15 19.9 °C 9.2 °C 1007.3 hPa ESE 16.1 km/h 38.6 km/h 50 % 0.0 mm 360 W/m2
15:20 19.7 °C 9.0 °C 1007.7 hPa ESE 25.7 km/h 37.0 km/h 50 % 0.0 mm 394 W/m2
15:25 20.2 °C 9.8 °C 1007.7 hPa East 17.7 km/h 37.0 km/h 51 % 0.0 mm 404 W/m2
15:30 20.3 °C 9.5 °C 1007.7 hPa SE 25.7 km/h 33.8 km/h 50 % 0.0 mm 622 W/m2
15:35 20.3 °C 9.8 °C 1007.7 hPa ENE 6.4 km/h 30.6 km/h 51 % 0.0 mm 366 W/m2
15:40 20.3 °C 9.5 °C 1008.0 hPa East 14.5 km/h 38.6 km/h 50 % 0.0 mm 290 W/m2
15:45 20.1 °C 9.3 °C 1007.7 hPa East 9.7 km/h 38.6 km/h 50 % 0.0 mm 376 W/m2
15:50 20.2 °C 9.7 °C 1007.7 hPa ESE 30.6 km/h 32.2 km/h 51 % 0.0 mm 454 W/m2
15:55 20.5 °C 10.3 °C 1007.3 hPa ESE 20.9 km/h 35.4 km/h 52 % 0.0 mm 408 W/m2
16:00 20.4 °C 10.0 °C 1007.3 hPa East 22.5 km/h 35.4 km/h 51 % 0.0 mm 295 W/m2
16:05 20.1 °C 9.3 °C 1007.3 hPa East 16.1 km/h 35.4 km/h 50 % 0.0 mm 353 W/m2
16:10 20.4 °C 9.7 °C 1007.3 hPa ENE 17.7 km/h 35.4 km/h 50 % 0.0 mm 524 W/m2
16:15 21.3 °C 10.2 °C 1007.3 hPa ESE 11.3 km/h 35.4 km/h 49 % 0.0 mm 923 W/m2
16:20 21.8 °C 9.6 °C 1007.0 hPa ESE 12.9 km/h 35.4 km/h 46 % 0.0 mm 782 W/m2
16:25 21.9 °C 10.4 °C 1007.0 hPa ESE 11.3 km/h 35.4 km/h 48 % 0.0 mm 693 W/m2
16:30 22.1 °C 9.2 °C 1006.7 hPa East 29.0 km/h 37.0 km/h 44 % 0.0 mm 587 W/m2
16:35 21.7 °C 9.6 °C 1006.7 hPa East 29.0 km/h 38.6 km/h 46 % 0.0 mm 696 W/m2
16:40 21.9 °C 9.4 °C 1006.7 hPa East 22.5 km/h 38.6 km/h 45 % 0.0 mm 584 W/m2
16:45 22.0 °C 9.8 °C 1006.7 hPa East 27.4 km/h 41.8 km/h 46 % 0.0 mm 691 W/m2
16:50 22.3 °C 9.8 °C 1006.7 hPa ENE 16.1 km/h 41.8 km/h 45 % 0.0 mm 698 W/m2
16:55 22.2 °C 10.0 °C 1006.3 hPa ESE 32.2 km/h 37.0 km/h 46 % 0.0 mm 705 W/m2
17:00 22.1 °C 8.6 °C 1006.7 hPa ESE 16.1 km/h 37.0 km/h 42 % 0.0 mm 357 W/m2
17:05 21.4 °C 8.7 °C 1006.7 hPa ESE 11.3 km/h 38.6 km/h 44 % 0.0 mm 237 W/m2
17:10 21.1 °C 8.7 °C 1006.7 hPa SSE 11.3 km/h 38.6 km/h 45 % 0.0 mm 195 W/m2
17:15 20.8 °C 9.1 °C 1006.7 hPa SSE 17.7 km/h 35.4 km/h 47 % 0.0 mm 186 W/m2
17:20 20.7 °C 8.9 °C 1006.7 hPa ESE 14.5 km/h 38.6 km/h 47 % 0.0 mm 183 W/m2
17:25 20.6 °C 8.6 °C 1006.7 hPa ESE 17.7 km/h 38.6 km/h 46 % 0.0 mm 162 W/m2
17:30 20.6 °C 8.9 °C 1006.3 hPa East 22.5 km/h 33.8 km/h 47 % 0.0 mm 165 W/m2
17:35 20.6 °C 9.2 °C 1006.3 hPa ESE 8.0 km/h 30.6 km/h 48 % 0.0 mm 141 W/m2
17:40 20.5 °C 9.1 °C 1006.3 hPa ESE 16.1 km/h 24.1 km/h 48 % 0.0 mm 127 W/m2
17:45 20.4 °C 9.1 °C 1006.3 hPa East 9.7 km/h 25.7 km/h 48 % 0.0 mm 135 W/m2
17:50 20.4 °C 8.4 °C 1006.3 hPa ESE 16.1 km/h 29.0 km/h 46 % 0.0 mm 123 W/m2
17:55 20.4 °C 8.7 °C 1006.3 hPa SE 17.7 km/h 29.0 km/h 47 % 0.0 mm 128 W/m2
18:00 20.3 °C 8.3 °C 1006.3 hPa SE 9.7 km/h 29.0 km/h 46 % 0.0 mm 142 W/m2
18:05 20.3 °C 8.3 °C 1006.3 hPa ESE 12.9 km/h 29.0 km/h 46 % 0.0 mm 146 W/m2
18:10 20.3 °C 8.6 °C 1006.0 hPa East 16.1 km/h 25.7 km/h 47 % 0.0 mm 137 W/m2
18:15 20.2 °C 8.8 °C 1006.0 hPa ESE 22.5 km/h 27.4 km/h 48 % 0.0 mm 118 W/m2
18:20 20.1 °C 9.0 °C 1006.0 hPa ENE 4.8 km/h 27.4 km/h 49 % 0.0 mm 132 W/m2
18:25 20.1 °C 9.0 °C 1006.0 hPa East 11.3 km/h 24.1 km/h 49 % 0.0 mm 114 W/m2
18:30 19.9 °C 8.9 °C 1006.0 hPa SE 17.7 km/h 24.1 km/h 49 % 0.0 mm 91 W/m2
18:35 19.9 °C 9.2 °C 1006.3 hPa ESE 22.5 km/h 25.7 km/h 50 % 0.0 mm 98 W/m2
18:40 19.8 °C 9.1 °C 1006.3 hPa ESE 8.0 km/h 25.7 km/h 50 % 0.0 mm 95 W/m2
18:45 19.7 °C 9.5 °C 1006.3 hPa SSW 8.0 km/h 27.4 km/h 52 % 0.0 mm 91 W/m2
18:50 19.4 °C 9.6 °C 1006.3 hPa ESE 6.4 km/h 38.6 km/h 53 % 0.0 mm 98 W/m2
18:55 19.2 °C 9.4 °C 1006.3 hPa ESE 14.5 km/h 38.6 km/h 53 % 0.0 mm 91 W/m2
19:00 18.9 °C 9.7 °C 1006.3 hPa ESE 6.4 km/h 29.0 km/h 55 % 0.0 mm 77 W/m2
19:05 18.6 °C 10.2 °C 1006.3 hPa SE 19.3 km/h 29.0 km/h 58 % 0.0 mm 53 W/m2
19:15 18.3 °C 10.4 °C 1006.0 hPa East 11.3 km/h 25.7 km/h 60 % 0.0 mm 51 W/m2
19:20 18.1 °C 10.4 °C 1006.0 hPa ESE 8.0 km/h 22.5 km/h 61 % 0.0 mm 49 W/m2
19:25 18.1 °C 10.4 °C 1006.0 hPa ESE 11.3 km/h 20.9 km/h 61 % 0.0 mm 44 W/m2
19:30 18.0 °C 10.4 °C 1006.0 hPa ESE 14.5 km/h 20.9 km/h 61 % 0.0 mm 47 W/m2
19:35 18.1 °C 10.2 °C 1006.0 hPa ESE 12.9 km/h 24.1 km/h 60 % 0.0 mm 49 W/m2
19:40 18.2 °C 10.1 °C 1006.0 hPa ESE 16.1 km/h 24.1 km/h 59 % 0.0 mm 56 W/m2
19:45 18.3 °C 10.1 °C 1005.6 hPa ESE 3.2 km/h 24.1 km/h 59 % 0.0 mm 63 W/m2
19:50 18.3 °C 10.1 °C 1005.6 hPa ESE 11.3 km/h 22.5 km/h 59 % 0.0 mm 53 W/m2
19:55 18.2 °C 10.1 °C 1005.6 hPa NE 3.2 km/h 22.5 km/h 59 % 0.0 mm 58 W/m2
20:00 18.3 °C 10.1 °C 1005.6 hPa East 8.0 km/h 19.3 km/h 59 % 0.0 mm 58 W/m2
20:05 18.2 °C 10.1 °C 1005.6 hPa East 22.5 km/h 22.5 km/h 59 % 0.0 mm 42 W/m2
20:10 18.2 °C 9.8 °C 1005.6 hPa ESE 8.0 km/h 24.1 km/h 58 % 0.0 mm 26 W/m2
20:15 18.2 °C 10.0 °C 1005.6 hPa SE 8.0 km/h 24.1 km/h 59 % 0.0 mm 32 W/m2
20:20 18.1 °C 9.9 °C 1005.6 hPa ESE 6.4 km/h 16.1 km/h 59 % 0.0 mm 28 W/m2
20:25 18.0 °C 10.1 °C 1005.6 hPa SE 4.8 km/h 16.1 km/h 60 % 0.0 mm 28 W/m2
20:30 17.9 °C 10.1 °C 1005.6 hPa ESE 4.8 km/h 16.1 km/h 60 % 0.0 mm 25 W/m2
20:35 17.9 °C 10.0 °C 1005.6 hPa East 16.1 km/h 20.9 km/h 60 % 0.0 mm 16 W/m2
20:40 17.8 °C 10.2 °C 1005.6 hPa ESE 11.3 km/h 20.9 km/h 61 % 0.0 mm 19 W/m2
20:45 17.7 °C 10.1 °C 1005.3 hPa East 14.5 km/h 20.9 km/h 61 % 0.0 mm 19 W/m2
20:50 17.6 °C 10.2 °C 1005.6 hPa SE 8.0 km/h 20.9 km/h 62 % 0.0 mm 14 W/m2
20:55 17.5 °C 10.1 °C 1005.6 hPa ENE 16.1 km/h 24.1 km/h 62 % 0.0 mm 7 W/m2
21:00 17.4 °C 10.3 °C 1005.6 hPa ESE 17.7 km/h 29.0 km/h 63 % 0.0 mm 7 W/m2
21:05 17.3 °C 10.5 °C 1005.6 hPa SE 11.3 km/h 29.0 km/h 64 % 0.0 mm 0 W/m2
21:10 17.2 °C 10.6 °C 1006.0 hPa East 4.8 km/h 20.9 km/h 65 % 0.0 mm 0 W/m2
21:15 17.1 °C 10.7 °C 1006.0 hPa SE 14.5 km/h 19.3 km/h 66 % 0.0 mm 0 W/m2
21:20 16.9 °C 11.2 °C 1006.0 hPa East 11.3 km/h 19.3 km/h 69 % 0.0 mm 0 W/m2
21:25 16.7 °C 11.0 °C 1006.0 hPa ESE 16.1 km/h 16.1 km/h 69 % 0.0 mm 0 W/m2
21:30 16.7 °C 11.0 °C 1006.3 hPa East 12.9 km/h 16.1 km/h 69 % 0.0 mm 0 W/m2
21:35 16.7 °C 11.0 °C 1006.3 hPa East 4.8 km/h 16.1 km/h 69 % 0.0 mm 0 W/m2
21:40 16.7 °C 11.0 °C 1006.7 hPa ESE 3.2 km/h 16.1 km/h 69 % 0.0 mm 0 W/m2
21:45 16.4 °C 11.4 °C 1006.7 hPa East 11.3 km/h 17.7 km/h 72 % 0.0 mm 0 W/m2
21:50 16.1 °C 11.7 °C 1006.7 hPa SSE 12.9 km/h 22.5 km/h 75 % 0.3 mm 0 W/m2
21:55 15.7 °C 11.8 °C 1007.0 hPa SE 1.6 km/h 22.5 km/h 78 % 0.3 mm 0 W/m2
22:00 15.2 °C 12.2 °C 1007.0 hPa SSE 1.6 km/h 16.1 km/h 82 % 0.5 mm 0 W/m2
22:05 14.9 °C 12.2 °C 1007.3 hPa Calm   14.5 km/h 84 % 0.5 mm 0 W/m2
22:10 14.6 °C 12.1 °C 1007.3 hPa SSE 8.0 km/h 14.5 km/h 85 % 1.3 mm 0 W/m2
22:15 14.4 °C 12.3 °C 1007.3 hPa SSE 3.2 km/h 12.9 km/h 87 % 1.5 mm 0 W/m2
22:20 14.2 °C 12.4 °C 1007.3 hPa SE 4.8 km/h 12.9 km/h 89 % 1.5 mm 0 W/m2
22:25 14.1 °C 12.4 °C 1007.3 hPa SE 1.6 km/h 6.4 km/h 90 % 2.0 mm 0 W/m2
22:30 13.9 °C 12.4 °C 1007.0 hPa Calm   6.4 km/h 91 % 2.3 mm 0 W/m2
22:35 13.8 °C 12.5 °C 1007.0 hPa East 1.6 km/h 4.8 km/h 92 % 2.5 mm 0 W/m2
22:40 13.7 °C 12.4 °C 1007.0 hPa Calm   8.0 km/h 92 % 2.8 mm 0 W/m2
22:45 13.7 °C 12.6 °C 1007.0 hPa ESE 3.2 km/h 8.0 km/h 93 % 2.8 mm 0 W/m2
22:50 13.6 °C 12.5 °C 1007.0 hPa Calm   4.8 km/h 93 % 2.5 mm 0 W/m2
22:55 13.6 °C 12.4 °C 1007.0 hPa ESE 1.6 km/h 4.8 km/h 93 % 2.8 mm 0 W/m2
23:00 13.5 °C 12.6 °C 1007.0 hPa ESE 1.6 km/h 4.8 km/h 94 % 2.3 mm 0 W/m2
23:05 13.5 °C 12.6 °C 1006.7 hPa Calm   4.8 km/h 94 % 2.3 mm 0 W/m2
23:10 13.4 °C 12.5 °C 1006.7 hPa Calm   3.2 km/h 94 % 1.8 mm 0 W/m2
23:15 13.4 °C 12.5 °C 1007.0 hPa Calm     94 % 2.0 mm 0 W/m2
23:20 13.4 °C 12.7 °C 1007.0 hPa Calm     95 % 2.0 mm 0 W/m2
23:25 13.4 °C 12.7 °C 1007.0 hPa Calm     95 % 2.0 mm 0 W/m2
23:30 13.4 °C 12.7 °C 1007.0 hPa Calm   3.2 km/h 95 % 1.8 mm 0 W/m2
23:35 13.4 °C 12.7 °C 1007.0 hPa Calm   3.2 km/h 95 % 2.0 mm 0 W/m2
23:40 13.4 °C 12.6 °C 1007.0 hPa Calm   1.6 km/h 95 % 2.3 mm 0 W/m2
23:45 13.4 °C 12.8 °C 1006.7 hPa Calm   1.6 km/h 96 % 2.5 mm 0 W/m2
23:50 13.3 °C 12.7 °C 1006.7 hPa Calm   3.2 km/h 96 % 2.8 mm 0 W/m2
23:55 13.4 °C 12.8 °C 1006.7 hPa Calm   6.4 km/h 96 % 2.8 mm 0 W/m2
Avec l'autorisation de Weather Underground - 1.75 mb